Cedar, IA

3:20 PM CDT on July 23, 2016 (GMT -0500)
Oskaloosa Municipal

Weather History for KOOA - April, 2013

Change the Weather History Date:

Wednesday, April 17, 2013

  Actual Average (KOTM) Record (KOTM)
Temperature  
Mean Temperature 44 °F 52 °F  
Max Temperature 49 °F 63 °F 86 °F (2004)
Min Temperature 38 °F 40 °F 24 °F (1907)
Degree Days  
Heating Degree Days 22 14  
Month to date heating degree days 285  
Since 1 July heating degree days 5981  
Cooling Degree Days 0 0  
Month to date cooling degree days 0  
Year to date cooling degree days 1  
Moisture  
Dew Point 40 °F    
Average Humidity 88    
Maximum Humidity 94    
Minimum Humidity 71    
Precipitation  
Precipitation 2.52 in 0.11 in 4.88 in (2013)
Month to date precipitation 1.72  
Year to date precipitation 6.14  
Sea Level Pressure  
Sea Level Pressure 29.96 in    
Wind  
Wind Speed 12 mph (East)    
Max Wind Speed 34 mph    
Max Gust Speed 31 mph    
Visibility 7 miles    
Events Rain    
T = Trace of Precipitation, MM = Missing Value Source: NWS Daily Summary

Daily Weather History Graph

Daily Weather History Graph

Search for Another Location

Airport or City:

Trip Planner

Search our weather history database for the weather conditions in past years. The results will help you decide how hot, cold, wet, or windy it might be!

Date:

Astronomy

Apr. 17, 2013 Rise Set
Actual Time 6:27 AM CDT 7:52 PM CDT
Civil Twilight 5:58 AM CDT 8:21 PM CDT
Nautical Twilight 5:23 AM CDT 8:56 PM CDT
Astronomical Twilight 4:47 AM CDT 9:32 PM CDT
Moon 11:40 AM CDT (4/17) 1:31 AM CDT (4/17)
Length of Visible Light 14h 23m
Length of Day
13h 25m
Waxing Crescent, 42% of the Moon is Illuminated
Apr 17
Waxing Crescent
Apr 18
First Quarter
Apr 25
Full
May 2
Last Quarter
May 9
New

Hourly Weather History & Observations

Time (CDT) Temp. Windchill Dew Point Humidity Pressure Visibility Wind Dir Wind Speed Gust Speed Precip Events Conditions
12:15 AM 45.0 °F 41.2 °F 36.1 °F 71% 30.19 in 10.0 mi NE 6.9 mph - N/A   Overcast
12:35 AM 45.0 °F 41.8 °F 36.5 °F 72% 30.19 in 10.0 mi ENE 5.8 mph - N/A   Overcast
12:55 AM 45.0 °F 41.2 °F 36.7 °F 73% 30.19 in 10.0 mi ENE 6.9 mph - N/A   Overcast
1:15 AM 45.1 °F 40.8 °F 36.9 °F 73% 30.19 in 10.0 mi ENE 8.1 mph - N/A   Overcast
1:35 AM 45.1 °F 40.8 °F 36.7 °F 72% 30.19 in 10.0 mi ENE 8.1 mph - N/A   Overcast
1:55 AM 45.1 °F 40.3 °F 37.0 °F 73% 30.18 in 10.0 mi NE 9.2 mph - N/A Rain Rain
2:15 AM 45.0 °F 40.1 °F 36.7 °F 73% 30.17 in 10.0 mi NE 9.2 mph - N/A   Overcast
2:35 AM 44.8 °F 41.0 °F 36.5 °F 73% 30.17 in 10.0 mi ENE 6.9 mph - N/A   Overcast
2:55 AM 45.0 °F 39.7 °F 36.7 °F 73% 30.14 in 10.0 mi ENE 10.4 mph - N/A   Overcast
3:15 AM 45.1 °F 40.3 °F 36.7 °F 72% 30.13 in 10.0 mi ENE 9.2 mph - N/A   Overcast
3:35 AM 45.3 °F 41.6 °F 36.7 °F 72% 30.16 in 10.0 mi East 6.9 mph - N/A   Overcast
3:55 AM 44.2 °F 37.6 °F 37.8 °F 78% 30.12 in 7.0 mi ENE 13.8 mph - 0.04 in Rain Light Rain
4:15 AM 44.2 °F 37.3 °F 37.8 °F 78% 30.14 in 10.0 mi East 15.0 mph 19.6 mph N/A   Light Drizzle
4:35 AM 43.7 °F 36.3 °F 38.7 °F 82% 30.11 in 10.0 mi East 16.1 mph 24.2 mph N/A Rain Light Rain
4:55 AM 43.7 °F 35.2 °F 39.4 °F 85% 30.08 in 10.0 mi ESE 20.7 mph 26.5 mph 0.01 in Rain Light Rain
5:15 AM 43.7 °F 37.7 °F 40.1 °F 87% 30.10 in 10.0 mi East 11.5 mph - 0.01 in Rain Light Rain
5:35 AM 43.9 °F 36.5 °F 39.4 °F 84% 30.11 in 10.0 mi ESE 16.1 mph 24.2 mph 0.01 in Rain Light Rain
5:55 AM 43.3 °F 37.2 °F 39.4 °F 86% 30.10 in 7.0 mi East 11.5 mph 17.3 mph 0.01 in Rain Light Rain
6:15 AM 42.8 °F 35.8 °F 39.6 °F 88% 30.10 in 1.2 mi East 13.8 mph 24.2 mph 0.26 in   Unknown
6:35 AM 41.7 °F 36.1 °F 39.0 °F 90% 30.14 in 4.0 mi North 9.2 mph - 0.34 in Rain Rain
6:55 AM 41.0 °F 35.8 °F 38.3 °F 90% 30.12 in 5.0 mi North 8.1 mph 16.1 mph 0.38 in Rain Light Rain
7:15 AM 40.1 °F 33.6 °F 37.0 °F 89% 30.11 in 5.0 mi NE 10.4 mph 25.3 mph 0.01 in Rain Light Rain
7:35 AM 40.3 °F 32.2 °F 37.0 °F 88% 30.07 in 5.0 mi East 15.0 mph 29.9 mph 0.01 in   Overcast
7:55 AM 40.5 °F 31.2 °F 36.9 °F 87% 30.04 in 7.0 mi ENE 19.6 mph 25.3 mph 0.01 in Rain Light Rain
8:15 AM 40.1 °F 30.2 °F 36.5 °F 87% 30.02 in 7.0 mi ENE 21.9 mph 27.6 mph 0.01 in Rain Light Rain
8:35 AM 39.6 °F 29.7 °F 36.3 °F 88% 30.01 in 2.0 mi ENE 20.7 mph 31.1 mph 0.14 in Rain Light Rain
9:15 AM 39.4 °F 30.7 °F 36.1 °F 88% 30.00 in 7.0 mi East 16.1 mph 26.5 mph N/A Rain Light Rain
9:35 AM 39.2 °F 30.8 °F 36.0 °F 88% 30.02 in 7.0 mi East 15.0 mph 26.5 mph 0.01 in Rain Light Rain
9:55 AM 39.0 °F 26.4 °F 36.5 °F 91% 30.19 in 5.0 mi West 34.5 mph - 0.01 in Rain Light Rain
10:35 AM 38.8 °F 32.6 °F 36.7 °F 92% 30.07 in 5.0 mi East 9.2 mph - 0.17 in Rain Heavy Rain
10:55 AM 39.2 °F 33.0 °F 36.5 °F 90% 30.09 in 1.2 mi ESE 9.2 mph - 0.40 in   Unknown
11:15 AM 38.7 °F 31.4 °F 36.5 °F 92% 30.07 in 5.0 mi East 11.5 mph - 0.07 in   Unknown
11:35 AM 38.7 °F 30.5 °F 36.7 °F 93% 30.03 in 5.0 mi East 13.8 mph - 0.10 in Rain Light Rain
11:55 AM 39.0 °F 29.9 °F 37.0 °F 93% 29.98 in 7.0 mi ENE 17.3 mph - 0.13 in Rain Light Rain
12:15 PM 39.2 °F 30.5 °F 37.4 °F 93% 29.99 in 7.0 mi East 16.1 mph - 0.01 in Rain Light Rain
12:35 PM 39.6 °F 30.6 °F 37.6 °F 93% 29.96 in 7.0 mi East 17.3 mph 21.9 mph 0.04 in Rain Rain
12:55 PM 40.1 °F 31.0 °F 37.9 °F 92% 29.91 in 10.0 mi East 18.4 mph 24.2 mph 0.06 in Rain Light Rain
1:15 PM 40.1 °F 32.7 °F 38.3 °F 93% 29.95 in 7.0 mi East 12.7 mph - N/A Rain Light Rain
1:35 PM 40.5 °F 31.8 °F 38.5 °F 93% 29.92 in 3.0 mi ESE 17.3 mph 25.3 mph 0.04 in Rain Light Rain
1:55 PM 40.6 °F 31.7 °F 38.7 °F 93% 29.90 in 10.0 mi East 18.4 mph 29.9 mph 0.05 in Rain Light Rain
2:15 PM 41.0 °F 32.8 °F 39.2 °F 93% 29.92 in 10.0 mi ESE 16.1 mph 24.2 mph 0.01 in Rain Light Rain
2:35 PM 41.2 °F 32.1 °F 39.2 °F 93% 29.87 in 10.0 mi ESE 19.6 mph - 0.03 in Rain Light Rain
2:55 PM 41.4 °F 31.9 °F 39.4 °F 93% 29.84 in 4.0 mi ESE 21.9 mph - 0.07 in Rain Light Rain
3:35 PM 42.1 °F 35.2 °F 40.3 °F 93% 29.85 in 1.5 mi ESE 12.7 mph - 0.16 in   Overcast
3:55 PM 42.4 °F 37.5 °F 40.6 °F 93% 29.87 in 7.0 mi NE 8.1 mph - 0.21 in Rain Rain
4:15 PM 42.8 °F 36.2 °F 41.0 °F 93% 29.88 in 3.0 mi ESE 12.7 mph - 0.07 in   Overcast
4:35 PM 42.8 °F 34.5 °F 41.0 °F 93% 29.84 in 5.0 mi ESE 18.4 mph - 0.15 in Rain Rain
4:55 PM 42.8 °F 34.3 °F 41.0 °F 93% 29.79 in 5.0 mi East 19.6 mph - 0.18 in Rain Light Rain
5:15 PM 43.0 °F 34.0 °F 41.2 °F 93% 29.76 in 10.0 mi ESE 21.9 mph - N/A Rain Light Rain
5:35 PM 43.7 °F 35.4 °F 41.9 °F 93% 29.74 in 10.0 mi ESE 19.6 mph - N/A Rain Light Rain
5:55 PM 44.8 °F 36.2 °F 43.0 °F 93% 29.77 in 10.0 mi SE 23.0 mph 28.8 mph 0.04 in Rain Rain
6:15 PM 44.6 °F 37.4 °F 42.8 °F 93% 29.77 in 5.0 mi SE 16.1 mph 31.1 mph 0.03 in Rain Light Rain
6:35 PM 45.1 °F - 43.3 °F 93% 29.79 in 10.0 mi Calm Calm - 0.08 in Rain Rain
6:55 PM 45.7 °F 39.8 °F 43.9 °F 93% 29.76 in 10.0 mi East 12.7 mph - 0.09 in Rain Light Rain
7:15 PM 45.7 °F 41.0 °F 44.1 °F 94% 29.79 in 10.0 mi NNW 9.2 mph - N/A Rain Light Rain
7:35 PM 46.4 °F 40.1 °F 44.6 °F 93% 29.73 in 4.0 mi ESE 15.0 mph 20.7 mph 0.07 in Rain Light Rain
7:55 PM 46.9 °F - 45.1 °F 93% 29.71 in 10.0 mi ESE 13.8 mph 23.0 mph 0.08 in Rain Light Rain
8:15 PM 47.3 °F - 45.5 °F 93% 29.71 in 10.0 mi SE 6.9 mph - N/A Rain Light Rain
8:35 PM 48.7 °F - 46.9 °F 93% 29.74 in 10.0 mi ESE 6.9 mph 26.5 mph 0.02 in Rain Rain
8:55 PM 49.8 °F - 47.7 °F 92% 29.80 in 1.8 mi NNW 13.8 mph 24.2 mph 0.30 in Rain Heavy Rain
9:15 PM 46.6 °F - 44.6 °F 93% 29.79 in 10.0 mi North 12.7 mph - 0.02 in Rain Light Rain
9:55 PM 44.8 °F 38.0 °F 43.0 °F 93% 29.80 in 10.0 mi North 15.0 mph - 0.06 in Rain Light Rain
10:15 PM 44.6 °F 36.9 °F 42.8 °F 93% 29.74 in 4.0 mi NE 18.4 mph - 0.05 in Rain Light Rain
10:35 PM 45.0 °F 37.1 °F 43.2 °F 93% 29.70 in 7.0 mi NE 19.6 mph - 0.09 in Rain Light Rain
10:55 PM 45.5 °F 38.9 °F 43.7 °F 93% 29.72 in 10.0 mi East 15.0 mph - 0.11 in Rain Light Rain
11:15 PM 46.2 °F 39.0 °F 44.4 °F 93% 29.69 in 7.0 mi East 18.4 mph 23.0 mph 0.04 in Rain Light Rain
11:35 PM 48.0 °F - 46.2 °F 93% 29.69 in 7.0 mi East 15.0 mph 21.9 mph 0.09 in Rain Rain
11:55 PM 49.3 °F - 47.5 °F 94% 29.64 in 5.0 mi East 21.9 mph - 0.14 in Rain Light Rain